Wind_Speed
13 13 13 12 13 12 12 12 11 11 12 11 11 10 10 9 9 8 8 8 8 7 6 6 5 5 4 4 4 3 3 3 3 3 3 4 4 3 3 3 3 3 3
15 15 15 14 14 14 14 13 13 13 13 13 13 12 12 11 11 10 9 9 9 8 7 7 6 6 5 4 4 3 3 3 3 2 2 3 3 3 3 2 2 2 2
17 17 17 16 16 16 16 15 15 15 15 15 14 14 14 13 12 12 11 11 10 10 9 8 7 7 7 6 5 4 4 4 3 2 2 2 2 2 2 1 1 1 1
19 19 18 18 18 18 17 17 17 17 17 17 17 16 16 15 15 14 13 13 12 11 11 10 9 8 8 8 7 6 5 5 4 3 2 2 2 1 1 1 1 1 0
21 21 21 20 20 19 19 19 19 19 19 19 19 18 18 17 17 16 16 15 14 13 12 12 11 10 10 9 9 8 7 6 6 5 4 3 3 2 2 2 2 1 1
23 22 22 22 22 21 21 20 20 21 21 21 20 20 20 19 19 18 17 16 15 14 14 13 13 12 12 11 11 10 9 8 7 7 6 5 4 4 3 3 3 2 2
24 24 24 23 23 23 23 22 21 22 22 22 22 22 21 21 21 20 19 18 17 16 15 15 14 14 13 13 12 11 11 10 9 8 8 7 6 6 5 4 4 4 3
26 26 26 26 25 25 25 25 24 24 24 23 23 23 23 23 22 22 21 20 19 18 18 17 16 15 15 14 14 13 12 12 11 10 9 9 8 7 7 6 6 5 4
29 28 28 28 28 27 27 27 27 26 26 26 25 25 25 24 24 23 23 22 21 20 20 19 18 17 17 16 15 15 14 13 13 12 11 10 10 9 9 8 7 7 6
30 30 30 29 29 29 29 29 29 28 28 28 28 27 26 26 26 25 25 24 23 22 22 21 20 19 18 17 17 16 16 15 14 14 13 12 11 11 10 9 9 9 8
32 32 32 31 31 32 32 31 31 31 31 30 30 29 29 28 27 27 26 26 25 24 23 23 22 21 20 20 19 19 18 17 16 16 15 14 13 12 12 11 11 11 10
34 34 34 34 34 34 34 34 33 33 33 32 32 31 31 31 30 29 29 28 28 27 26 25 24 23 23 22 21 21 20 20 19 18 17 16 16 15 14 14 14 13 12
35 36 36 36 36 36 36 36 36 36 35 35 34 34 33 33 32 31 30 30 30 29 29 28 27 26 25 24 24 23 22 22 21 20 20 19 18 17 17 16 16 15 15
38 38 38 39 38 38 38 38 38 38 38 37 37 36 36 35 34 34 33 32 32 32 31 31 30 29 28 27 26 25 25 24 23 23 22 21 20 19 19 18 18 18 17
40 40 40 40 41 40 40 40 40 40 40 40 39 39 38 37 37 36 35 35 34 34 34 34 33 32 31 29 28 27 27 26 25 25 24 23 23 22 21 21 20 20 20
41 42 42 42 43 43 43 42 42 42 41 41 41 41 40 40 39 39 38 37 36 36 35 35 35 34 33 32 31 30 29 28 27 26 25 25 24 24 24 23 23 22 22
42 43 43 43 44 44 45 44 44 43 43 42 42 42 42 41 41 40 39 39 38 38 37 37 37 36 35 34 33 32 31 30 28 28 27 27 26 26 26 25 25 25 24
44 44 44 44 44 45 45 45 45 45 45 44 45 45 44 43 42 42 41 41 40 40 39 39 39 37 37 36 35 34 33 32 31 30 30 29 28 28 28 27 27 27 26
46 45 45 45 46 46 46 46 46 47 47 47 46 47 46 46 46 45 44 43 43 43 42 41 40 39 39 38 37 36 36 35 34 33 33 32 31 30 30 30 29 29 28
46 46 46 46 47 48 48 48 48 48 49 49 49 48 48 48 47 47 47 46 45 45 45 44 44 42 41 40 40 39 37 37 37 35 35 34 33 33 32 32 31 30 30
46 47 47 48 49 49 49 49 50 49 50 50 50 50 50 49 49 49 49 48 47 47 46 46 45 45 44 42 42 41 40 40 39 37 36 36 36 35 34 34 33 32 31
47 48 48 49 49 50 51 51 50 51 50 51 51 50 51 51 51 51 52 51 50 49 48 48 48 47 46 45 44 43 42 42 41 40 39 38 38 37 36 36 35 34 33
46 47 49 49 49 50 51 51 51 51 51 52 52 52 52 52 52 51 52 52 51 50 49 49 49 49 48 47 47 46 44 43 43 42 40 40 39 39 38 38 37 37 36
46 46 48 48 48 49 50 50 51 51 51 51 52 52 52 52 52 52 51 52 51 51 51 51 51 51 50 50 49 48 47 45 44 43 42 41 41 41 40 40 39 39 38
45 46 47 47 47 48 49 49 50 50 51 51 52 52 53 53 53 53 53 53 53 52 52 52 52 52 52 52 51 50 49 47 46 46 45 44 43 42 42 41 41 40 40
44 45 45 47 47 47 48 49 49 49 49 50 50 52 53 53 52 53 54 54 54 54 54 53 53 53 53 53 53 52 51 50 49 48 48 47 46 44 44 43 42 42 41
Wind_Direction
228 227 227 227 223 223 225 226 226 225 225 224 223 222 220 217 213 210 208 205 203 202 202 201 200 200 197 181 170 169 160 147 138 133 129 124 122 120 116 107 98 93 87
232 231 230 229 226 226 227 229 229 229 227 227 226 225 223 222 220 219 217 216 214 213 213 214 214 212 211 202 192 190 186 178 167 157 142 136 132 130 127 118 110 94 86
235 234 233 232 230 230 230 229 230 231 231 231 230 229 227 227 226 225 226 224 223 223 225 225 223 222 219 215 213 210 202 193 183 178 169 156 148 143 147 148 144 123 103
237 235 235 235 234 234 233 231 231 232 233 233 233 232 231 230 231 230 230 230 229 229 229 229 228 228 226 224 224 219 215 211 207 206 197 183 171 172 185 192 188 183 167
239 238 237 236 236 235 235 234 233 232 233 233 233 233 233 233 233 233 233 234 234 234 234 234 232 231 230 228 227 225 226 225 223 224 220 219 215 216 227 227 212 214 251
240 240 239 238 238 238 237 236 234 234 235 234 234 235 235 234 234 235 236 237 237 237 237 237 237 236 234 232 230 230 232 232 230 230 230 232 234 239 247 246 238 246 256
240 240 240 240 241 241 240 239 238 236 236 236 235 235 236 236 236 236 238 240 240 240 240 240 239 239 238 235 233 232 233 234 233 234 238 242 243 245 249 252 252 250 252
241 241 241 241 241 242 242 241 240 238 237 236 236 236 236 237 238 238 239 240 241 242 242 241 240 240 240 240 237 235 235 236 237 237 240 244 245 245 249 252 254 252 252
243 243 243 243 243 243 243 242 242 241 240 238 238 238 239 239 240 239 240 241 242 243 244 243 242 241 242 242 241 238 236 237 239 241 242 243 245 247 249 249 251 251 251
244 244 244 244 244 244 245 244 242 243 242 242 240 240 240 241 241 241 241 242 243 243 244 245 243 243 243 244 242 240 239 239 240 242 242 244 245 247 249 249 251 251 252
245 244 244 244 244 244 244 245 244 243 243 243 243 241 242 242 243 243 243 243 243 244 245 245 244 244 244 245 245 244 243 243 243 243 243 244 245 247 249 250 251 252 253
246 245 245 245 245 245 245 244 245 245 245 244 244 243 243 243 244 244 244 244 244 245 245 246 246 245 245 245 245 246 246 245 245 245 245 245 247 249 250 251 252 253 254
247 247 246 246 246 246 246 245 245 246 246 246 245 244 244 244 245 245 245 245 245 246 245 245 246 246 246 246 245 246 247 246 246 245 245 245 247 250 252 253 254 255 256
248 248 247 246 246 246 246 246 246 246 247 246 246 246 245 245 245 245 246 246 246 246 246 246 247 246 246 247 246 246 247 247 246 246 246 246 247 250 252 254 254 256 257
249 248 248 247 247 247 246 246 246 246 246 247 246 246 246 246 245 245 245 246 246 246 247 246 247 248 246 247 247 246 246 247 247 247 247 247 248 250 252 254 254 256 258
250 249 249 248 247 247 246 246 246 246 247 247 247 245 246 246 246 245 245 246 246 247 247 247 247 248 246 246 247 247 247 247 248 248 248 248 250 251 253 254 254 255 257
250 249 248 248 247 247 246 246 246 246 246 246 246 246 246 246 247 247 246 246 247 247 247 248 247 247 246 246 247 248 247 247 248 249 249 249 251 252 254 255 255 255 256
250 249 248 247 247 246 246 246 246 246 245 245 245 246 246 247 247 247 247 247 247 247 247 248 248 247 247 246 247 247 247 248 248 249 250 252 252 253 254 255 256 256 256
250 249 248 247 247 248 247 247 247 246 246 245 246 247 246 247 247 247 248 248 248 248 247 247 247 247 247 248 246 246 248 249 249 250 252 252 253 254 255 255 256 257 257
251 250 249 249 248 247 247 247 247 247 247 247 247 247 247 247 247 247 248 249 248 248 248 247 246 246 247 248 247 246 248 250 250 251 252 252 253 254 255 256 257 257 257
252 251 251 249 248 247 247 247 247 247 247 247 247 247 247 247 247 248 248 248 248 248 248 247 247 246 247 247 247 247 247 249 250 251 252 253 254 255 256 256 256 256 257
253 252 251 250 249 248 248 248 248 247 247 247 247 246 246 246 247 247 247 247 247 247 247 247 247 246 247 247 247 247 247 248 250 251 252 254 254 254 255 255 255 256 256
254 253 252 252 251 249 248 248 247 247 247 247 246 246 246 246 245 246 246 246 246 246 246 247 247 246 246 246 246 247 247 248 250 251 252 253 254 254 254 255 256 256 256
254 254 253 253 252 250 249 248 248 247 247 246 245 245 246 245 245 245 246 246 246 246 246 246 246 246 246 246 246 247 247 248 249 249 250 252 253 253 254 254 255 256 255
255 254 254 253 251 250 249 247 247 247 246 246 245 245 244 245 245 245 245 246 247 246 247 247 246 247 246 246 246 246 246 248 249 250 250 251 252 253 253 253 254 255 256
256 255 255 254 252 251 249 248 247 246 246 245 244 244 244 245 245 245 245 246 246 246 247 247 246 246 246 246 245 245 245 247 248 250 249 250 251 252 253 253 253 255 255
Height
5850 5850 5851 5852 5853 5854 5855 5856 5857 5858 5859 5860 5861 5862 5862 5863 5863 5864 5864 5865 5865 5866 5866 5866 5867 5867 5867 5867 5867 5867 5868 5868 5868 5867 5867 5867 5867 5867 5867 5867 5866 5866 5866
5847 5848 5849 5850 5851 5852 5853 5854 5855 5856 5857 5858 5859 5860 5861 5862 5862 5863 5864 5864 5865 5865 5865 5866 5866 5867 5867 5867 5867 5867 5868 5868 5868 5868 5868 5867 5867 5867 5867 5867 5867 5867 5866
5844 5845 5846 5847 5848 5849 5850 5852 5853 5854 5855 5856 5858 5859 5859 5860 5861 5862 5862 5863 5864 5864 5865 5865 5866 5866 5866 5867 5867 5867 5867 5868 5868 5868 5867 5867 5867 5867 5867 5867 5867 5867 5866
5841 5842 5843 5844 5845 5847 5848 5849 5850 5852 5853 5854 5855 5856 5857 5858 5859 5860 5861 5862 5862 5863 5864 5864 5865 5865 5866 5866 5866 5867 5867 5867 5867 5867 5867 5867 5867 5867 5867 5867 5867 5866 5866
5837 5838 5839 5841 5842 5843 5845 5846 5847 5849 5850 5852 5853 5854 5855 5856 5857 5858 5859 5860 5861 5861 5862 5863 5863 5864 5864 5865 5866 5866 5866 5866 5867 5867 5867 5867 5867 5867 5867 5867 5866 5866 5866
5833 5834 5836 5837 5838 5840 5841 5843 5844 5846 5847 5848 5850 5851 5852 5854 5855 5856 5857 5858 5858 5859 5860 5861 5862 5862 5863 5864 5864 5865 5865 5865 5866 5866 5866 5866 5866 5866 5866 5866 5866 5866 5866
5829 5830 5832 5833 5835 5836 5838 5839 5841 5842 5843 5845 5846 5848 5849 5850 5852 5853 5854 5855 5856 5857 5858 5859 5860 5861 5861 5862 5863 5863 5864 5864 5864 5865 5865 5865 5865 5866 5865 5865 5865 5865 5865
5824 5825 5827 5828 5830 5832 5834 5835 5837 5838 5839 5841 5843 5844 5845 5847 5848 5850 5851 5852 5853 5854 5856 5857 5857 5858 5859 5860 5861 5861 5862 5863 5863 5863 5864 5864 5864 5864 5864 5864 5864 5864 5864
5818 5820 5822 5823 5825 5827 5829 5830 5832 5833 5835 5837 5838 5840 5842 5843 5844 5846 5848 5849 5850 5851 5852 5854 5855 5856 5856 5857 5858 5859 5860 5860 5861 5861 5862 5862 5863 5863 5863 5863 5863 5863 5863
5812 5814 5816 5818 5819 5821 5823 5825 5827 5828 5830 5832 5833 5835 5837 5839 5840 5842 5843 5845 5846 5847 5849 5850 5851 5852 5853 5854 5855 5856 5857 5858 5859 5859 5860 5860 5860 5861 5861 5861 5861 5861 5861
5805 5807 5809 5811 5813 5815 5817 5819 5821 5823 5824 5826 5828 5830 5832 5834 5835 5837 5839 5840 5842 5843 5844 5846 5847 5849 5850 5851 5852 5853 5854 5855 5856 5856 5857 5857 5858 5858 5859 5859 5859 5859 5859
5798 5800 5802 5804 5806 5808 5810 5812 5814 5816 5818 5820 5822 5824 5826 5828 5830 5832 5833 5835 5837 5838 5840 5841 5843 5844 5846 5847 5848 5849 5850 5851 5852 5853 5854 5854 5855 5855 5856 5856 5856 5857 5857
5790 5792 5794 5796 5798 5800 5802 5804 5807 5809 5811 5813 5815 5817 5819 5821 5824 5826 5827 5829 5831 5833 5835 5836 5838 5840 5841 5842 5844 5845 5846 5847 5848 5849 5850 5851 5851 5852 5853 5853 5853 5854 5854
5780 5783 5785 5787 5789 5792 5794 5796 5798 5801 5803 5805 5808 5810 5812 5814 5817 5819 5821 5823 5825 5827 5829 5831 5832 5834 5836 5837 5839 5840 5841 5843 5844 5845 5846 5847 5847 5848 5849 5849 5850 5850 5851
5770 5773 5775 5778 5780 5782 5785 5787 5789 5792 5794 5796 5799 5802 5804 5806 5809 5811 5814 5816 5818 5820 5822 5824 5826 5828 5830 5831 5833 5835 5836 5837 5839 5840 5841 5842 5843 5844 5845 5845 5846 5846 5846
5760 5762 5765 5767 5770 5772 5775 5777 5780 5782 5785 5787 5790 5792 5795 5798 5800 5803 5805 5808 5810 5812 5815 5817 5819 5821 5823 5825 5827 5828 5830 5832 5833 5834 5836 5837 5838 5839 5840 5840 5841 5842 5842
5749 5751 5754 5756 5758 5761 5764 5767 5770 5772 5775 5777 5780 5783 5785 5788 5791 5794 5796 5799 5802 5804 5806 5809 5811 5813 5815 5818 5820 5822 5823 5825 5827 5828 5830 5831 5832 5833 5834 5835 5836 5836 5837
5737 5740 5742 5745 5747 5750 5752 5756 5759 5762 5764 5767 5770 5772 5775 5778 5781 5784 5787 5790 5792 5795 5797 5800 5802 5805 5808 5810 5812 5814 5816 5818 5820 5822 5823 5825 5826 5827 5828 5829 5830 5830 5831
5725 5727 5730 5732 5735 5738 5741 5744 5747 5750 5753 5756 5759 5762 5764 5767 5770 5773 5777 5780 5783 5785 5788 5790 5793 5796 5799 5801 5804 5806 5808 5810 5812 5814 5816 5817 5819 5820 5821 5822 5823 5824 5825
5713 5715 5718 5720 5723 5725 5728 5732 5735 5738 5740 5744 5747 5750 5753 5755 5759 5762 5765 5769 5771 5775 5778 5780 5783 5786 5789 5792 5795 5797 5800 5802 5804 5806 5808 5810 5811 5812 5814 5815 5816 5817 5818
5700 5702 5705 5707 5710 5712 5716 5719 5722 5725 5728 5731 5734 5737 5740 5743 5746 5749 5753 5756 5760 5763 5766 5770 5773 5776 5779 5782 5785 5788 5790 5793 5795 5797 5799 5801 5803 5804 5805 5807 5808 5809 5810
5687 5689 5692 5694 5696 5699 5702 5705 5708 5712 5715 5718 5721 5723 5726 5729 5733 5736 5740 5744 5747 5751 5754 5757 5761 5765 5768 5771 5775 5778 5781 5784 5786 5788 5790 5792 5794 5796 5797 5799 5800 5801 5802
5674 5676 5678 5680 5682 5685 5688 5691 5694 5697 5700 5704 5707 5710 5713 5716 5719 5723 5726 5730 5734 5737 5741 5745 5748 5752 5756 5760 5763 5767 5770 5774 5777 5779 5781 5783 5784 5786 5788 5790 5791 5793 5794
5661 5663 5665 5667 5669 5671 5674 5677 5680 5683 5686 5689 5693 5696 5699 5702 5706 5709 5713 5717 5720 5724 5728 5732 5735 5739 5743 5747 5751 5755 5759 5762 5765 5768 5771 5773 5775 5777 5778 5780 5782 5783 5785
5649 5650 5652 5654 5656 5658 5660 5662 5665 5669 5672 5676 5679 5683 5686 5689 5692 5695 5699 5703 5707 5710 5714 5718 5721 5726 5730 5734 5738 5742 5746 5749 5753 5756 5760 5762 5764 5766 5768 5770 5772 5773 5775
5635 5637 5639 5640 5643 5644 5646 5649 5651 5655 5658 5662 5665 5668 5672 5675 5678 5682 5685 5689 5692 5696 5700 5704 5708 5712 5716 5720 5725 5729 5733 5737 5740 5744 5747 5750 5753 5755 5757 5759 5761 5763 5765